• In Hungary
  • List of Countries
  • For 7 days
  • Water Temperature
  • Satellite Maps
  • Weather Map
  • News
  • Weather Widgets
  • user-avatar
    Login

    Hourly Weather Nijar

    Today, 14 November, Wednesday

    Time Temperature Precipitation Wind Pressure Humidity
    00:00 +15°C° 0 mm 6 mps 724 mmHg 78%
    01:00 +15°C° 0.4 mm 6 mps 724 mmHg 78%
    02:00 +15°C° 0.4 mm 6 mps 723 mmHg 79%
    03:00 +15°C° 0.4 mm 6 mps 723 mmHg 79%
    04:00 +15°C° 0.4 mm 6 mps 723 mmHg 79%
    05:00 +15°C° 0.4 mm 6 mps 723 mmHg 79%
    06:00 +14°C° 0 mm 6 mps 723 mmHg 78%
    07:00 +15°C° 0.7 mm 6 mps 723 mmHg 77%
    08:00 +15°C° 0.7 mm 6 mps 723 mmHg 76%
    09:00 +15°C° 0.7 mm 6 mps 722 mmHg 74%
    10:00 +16°C° 0.2 mm 6 mps 722 mmHg 72%
    11:00 +17°C° 0.2 mm 6 mps 722 mmHg 69%
    12:00 +17°C° 0.2 mm 7 mps 722 mmHg 66%
    13:00 +17°C° 0.1 mm 6 mps 721 mmHg 66%
    14:00 +17°C° 0.1 mm 6 mps 721 mmHg 65%
    15:00 +17°C° 0.1 mm 6 mps 720 mmHg 64%
    16:00 +17°C° 0.2 mm 6 mps 720 mmHg 69%
    17:00 +16°C° 0.2 mm 6 mps 720 mmHg 73%
    18:00 +15°C° 0.2 mm 5 mps 720 mmHg 77%
    19:00 +15°C° 0.3 mm 5 mps 720 mmHg 78%
    20:00 +15°C° 0.3 mm 5 mps 720 mmHg 79%
    21:00 +14°C° 0.3 mm 5 mps 720 mmHg 80%
    22:00 +14°C° 1.6 mm 5 mps 720 mmHg 81%
    23:00 +14°C° 1.6 mm 5 mps 719 mmHg 82%

    Tomorrow, 15 November, Thursday

    Time Temperature Precipitation Wind Pressure Humidity
    00:00 +14°C° 1.6 mm 5 mps 719 mmHg 83%
    01:00 +14°C° 0.8 mm 5 mps 719 mmHg 83%
    02:00 +14°C° 0.8 mm 4 mps 719 mmHg 84%
    03:00 +14°C° 0.8 mm 4 mps 719 mmHg 84%
    04:00 +14°C° 0.5 mm 4 mps 719 mmHg 85%
    05:00 +13°C° 0.5 mm 4 mps 719 mmHg 85%
    06:00 +13°C° 0.5 mm 4 mps 719 mmHg 86%
    07:00 +14°C° 0.2 mm 4 mps 719 mmHg 82%
    08:00 +15°C° 0.2 mm 4 mps 719 mmHg 78%
    09:00 +17°C° 0.2 mm 4 mps 720 mmHg 74%
    10:00 +17°C° 0.1 mm 4 mps 720 mmHg 71%
    11:00 +17°C° 0.1 mm 5 mps 720 mmHg 67%
    12:00 +17°C° 0.1 mm 5 mps 720 mmHg 64%
    13:00 +17°C° 0.1 mm 5 mps 720 mmHg 64%
    14:00 +17°C° 0.1 mm 5 mps 720 mmHg 65%
    15:00 +18°C° 0.1 mm 4 mps 719 mmHg 65%
    16:00 +18°C° 0.1 mm 4 mps 720 mmHg 70%
    17:00 +17°C° 0.1 mm 4 mps 720 mmHg 74%
    18:00 +15°C° 0.1 mm 4 mps 720 mmHg 78%
    19:00 +16°C° 0.1 mm 3 mps 720 mmHg 79%
    20:00 +16°C° 0.1 mm 3 mps 721 mmHg 81%
    21:00 +14°C° 0.1 mm 3 mps 721 mmHg 82%
    22:00 +14°C° 0 mm 3 mps 721 mmHg 83%
    23:00 +14°C° 0 mm 4 mps 721 mmHg 83%

    Day after tomorrow, 16 November, Friday

    Time Temperature Precipitation Wind Pressure Humidity
    00:00 +14°C° 0 mm 4 mps 721 mmHg 84%
    01:00 +14°C° 0 mm 4 mps 721 mmHg 84%
    02:00 +13°C° 0 mm 4 mps 721 mmHg 84%
    03:00 +13°C° 0 mm 4 mps 721 mmHg 84%
    04:00 +13°C° 0 mm 4 mps 721 mmHg 83%
    05:00 +13°C° 0 mm 4 mps 721 mmHg 82%
    06:00 +13°C° 0 mm 4 mps 720 mmHg 81%
    07:00 +14°C° 0.1 mm 4 mps 721 mmHg 78%
    08:00 +15°C° 0.1 mm 5 mps 721 mmHg 74%
    09:00 +16°C° 0.1 mm 5 mps 721 mmHg 71%
    10:00 +16°C° 0 mm 5 mps 721 mmHg 69%
    11:00 +17°C° 0 mm 6 mps 720 mmHg 66%
    12:00 +17°C° 0 mm 6 mps 720 mmHg 63%
    13:00 +17°C° 0.2 mm 6 mps 720 mmHg 64%
    14:00 +17°C° 0.2 mm 6 mps 720 mmHg 64%
    15:00 +17°C° 0.2 mm 6 mps 719 mmHg 64%
    16:00 +16°C° 0.3 mm 6 mps 719 mmHg 69%
    17:00 +16°C° 0.3 mm 5 mps 719 mmHg 75%
    18:00 +15°C° 0.3 mm 5 mps 719 mmHg 80%
    19:00 +15°C° 0.4 mm 5 mps 720 mmHg 81%
    20:00 +14°C° 0.4 mm 5 mps 720 mmHg 82%
    21:00 +14°C° 0.4 mm 5 mps 720 mmHg 83%
    22:00 +14°C° 0.3 mm 5 mps 720 mmHg 84%
    23:00 +14°C° 0.3 mm 5 mps 720 mmHg 85%

    17 November, Saturday

    Time Temperature Precipitation Wind Pressure Humidity
    00:00 +14°C° 0.3 mm 5 mps 719 mmHg 86%
    01:00 +13°C° 0.1 mm 5 mps 719 mmHg 86%
    02:00 +13°C° 0.1 mm 5 mps 719 mmHg 86%
    03:00 +13°C° 0.1 mm 5 mps 719 mmHg 86%
    04:00 +13°C° 0 mm 5 mps 719 mmHg 86%
    05:00 +13°C° 0 mm 4 mps 718 mmHg 87%
    06:00 +12°C° 0 mm 4 mps 718 mmHg 87%
    07:00 +13°C° 0 mm 4 mps 718 mmHg 82%
    08:00 +14°C° 0 mm 4 mps 719 mmHg 77%
    09:00 +15°C° 0 mm 4 mps 719 mmHg 73%
    10:00 +15°C° 0 mm 4 mps 719 mmHg 69%
    11:00 +17°C° 0 mm 4 mps 718 mmHg 66%
    12:00 +17°C° 0 mm 4 mps 718 mmHg 63%
    13:00 +17°C° 0 mm 4 mps 718 mmHg 63%
    14:00 +17°C° 0 mm 4 mps 717 mmHg 64%
    15:00 +17°C° 0 mm 4 mps 717 mmHg 64%
    16:00 +17°C° 0 mm 4 mps 717 mmHg 70%
    17:00 +15°C° 0 mm 4 mps 716 mmHg 76%
    18:00 +14°C° 0 mm 3 mps 716 mmHg 81%
    19:00 +14°C° 0 mm 3 mps 716 mmHg 83%
    20:00 +14°C° 0 mm 3 mps 716 mmHg 85%
    21:00 +13°C° 0 mm 3 mps 716 mmHg 87%
    22:00 +13°C° 0.1 mm 3 mps 715 mmHg 87%
    23:00 +13°C° 0.1 mm 3 mps 715 mmHg 87%

    18 November, Sunday

    Time Temperature Precipitation Wind Pressure Humidity
    00:00 +13°C° 0.1 mm 3 mps 714 mmHg 87%
    01:00 +13°C° 0 mm 3 mps 714 mmHg 87%
    02:00 +12°C° 0 mm 3 mps 713 mmHg 86%
    03:00 +12°C° 0 mm 3 mps 713 mmHg 86%
    04:00 +12°C° 0 mm 4 mps 712 mmHg 86%
    05:00 +12°C° 0 mm 4 mps 712 mmHg 86%
    06:00 +12°C° 0 mm 4 mps 712 mmHg 86%
    07:00 +12°C° 0.2 mm 4 mps 712 mmHg 85%
    08:00 +13°C° 0.2 mm 4 mps 712 mmHg 84%
    09:00 +13°C° 0.2 mm 4 mps 712 mmHg 83%
    10:00 +13°C° 1.1 mm 3 mps 712 mmHg 82%
    11:00 +13°C° 1.1 mm 3 mps 712 mmHg 82%
    12:00 +14°C° 1.1 mm 2 mps 712 mmHg 81%
    13:00 +15°C° 0.5 mm 2 mps 712 mmHg 80%
    14:00 +15°C° 0.5 mm 2 mps 712 mmHg 78%
    15:00 +15°C° 0.5 mm 2 mps 711 mmHg 76%
    16:00 +14°C° 0.1 mm 2 mps 712 mmHg 78%
    17:00 +13°C° 0.1 mm 3 mps 712 mmHg 79%
    18:00 +12°C° 0.1 mm 3 mps 712 mmHg 81%
    19:00 +12°C° 0 mm 3 mps 713 mmHg 80%
    20:00 +12°C° 0 mm 3 mps 713 mmHg 80%
    21:00 +12°C° 0 mm 4 mps 713 mmHg 79%
    22:00 +11°C° 0 mm 3 mps 713 mmHg 78%
    23:00 +11°C° 0 mm 3 mps 713 mmHg 78%

    19 November, Monday

    Time Temperature Precipitation Wind Pressure Humidity
    00:00 +11°C° 0 mm 3 mps 713 mmHg 78%
    01:00 +10°C° 0 mm 3 mps 713 mmHg 77%
    02:00 +10°C° 0 mm 2 mps 713 mmHg 77%
    03:00 +10°C° 0 mm 2 mps 713 mmHg 76%
    04:00 +10°C° 0 mm 2 mps 713 mmHg 77%
    05:00 +10°C° 0 mm 2 mps 713 mmHg 78%
    06:00 +9°C° 0 mm 2 mps 713 mmHg 79%
    07:00 +10°C° 0.1 mm 2 mps 713 mmHg 75%
    08:00 +12°C° 0.1 mm 1 mps 714 mmHg 71%
    09:00 +13°C° 0.1 mm 1 mps 714 mmHg 67%
    10:00 +14°C° 0.1 mm 2 mps 714 mmHg 64%
    11:00 +14°C° 0.1 mm 2 mps 714 mmHg 61%
    12:00 +14°C° 0.1 mm 3 mps 714 mmHg 58%
    13:00 +14°C° 0 mm 3 mps 714 mmHg 57%
    14:00 +14°C° 0 mm 3 mps 713 mmHg 56%
    15:00 +14°C° 0 mm 3 mps 713 mmHg 55%
    16:00 +13°C° 0 mm 3 mps 713 mmHg 59%
    17:00 +12°C° 0 mm 4 mps 714 mmHg 63%
    18:00 +12°C° 0 mm 4 mps 714 mmHg 68%
    19:00 +11°C° 0 mm 4 mps 714 mmHg 68%
    20:00 +11°C° 0 mm 4 mps 714 mmHg 68%
    21:00 +11°C° 0 mm 4 mps 715 mmHg 68%
    22:00 +11°C° 0 mm 4 mps 715 mmHg 68%
    23:00 +11°C° 0 mm 4 mps 715 mmHg 68%
    Show more